Theta_e
349 352 351 343 355 353 357 355 345 349 350 347 348 350 348 348 346 348 345 345 344 343 343 344 343 339 335 332 332 332 333 333 331 332 331 332 334 334 332 333 334 334 334 332 334 333 338 340 341
351 347 343 343 356 358 356 351 350 350 349 349 348 349 349 348 347 346 345 344 343 343 343 343 343 339 332 331 332 332 332 333 331 332 331 331 333 332 332 333 334 334 334 333 333 333 333 337 342
352 344 345 348 353 357 356 352 352 350 349 349 349 348 348 348 346 345 344 344 344 343 343 341 338 339 333 331 333 333 333 332 330 331 331 331 333 331 331 333 334 337 334 336 331 335 337 335 340
350 341 342 355 358 352 351 353 351 350 350 349 347 349 349 349 347 344 344 343 343 342 341 338 333 333 332 330 332 333 333 332 329 330 331 332 333 331 332 333 336 336 336 342 331 334 338 337 340
351 349 356 357 354 349 349 351 351 350 349 349 348 349 348 347 344 345 344 342 341 340 339 338 334 332 331 331 332 333 333 332 330 331 332 333 332 334 336 337 338 338 338 339 338 335 336 338 339
353 351 355 352 353 348 348 351 349 349 350 349 348 348 348 345 348 348 344 343 341 340 340 339 338 336 334 333 333 333 333 330 330 332 333 332 333 338 340 341 342 341 340 339 339 338 338 338 343
345 351 353 350 352 352 351 350 350 351 350 349 347 348 348 348 347 348 346 346 343 342 341 340 340 340 337 335 334 333 330 330 331 333 333 333 344 345 342 339 339 340 340 339 339 341 340 341 342
345 349 350 348 347 347 349 350 351 351 351 348 346 348 347 347 346 346 347 345 342 340 341 340 339 337 337 335 333 330 330 331 332 333 334 343 345 345 343 341 343 342 342 338 339 345 345 344 345
342 348 347 347 344 345 349 349 350 349 349 347 350 346 345 345 347 349 350 349 344 343 339 337 336 334 333 331 330 330 330 332 331 333 335 339 346 345 345 346 347 346 345 342 344 346 347 345 345
343 346 346 342 340 341 346 349 349 349 350 349 348 348 348 346 348 350 350 350 346 344 343 339 335 334 332 331 330 330 330 330 331 334 340 343 346 345 346 346 346 347 348 348 346 341 342 343 345
345 346 342 342 341 342 347 349 348 349 350 348 349 349 349 349 349 350 351 347 347 346 342 341 336 332 330 329 329 330 330 331 332 335 339 343 347 348 345 345 346 345 345 344 346 345 343 343 343
343 341 341 340 341 339 347 348 349 348 348 346 346 348 348 349 350 351 351 348 349 345 339 339 338 333 331 331 335 332 337 339 344 348 344 339 346 346 347 347 346 346 344 344 346 345 344 343 345
341 340 342 341 340 340 339 341 348 346 347 348 348 350 349 350 351 350 348 346 347 346 342 339 340 336 333 341 341 338 344 345 346 347 347 344 343 347 347 346 345 346 345 344 345 345 343 341 340
341 341 341 341 338 340 336 339 341 347 347 348 350 350 350 351 351 350 350 349 348 345 341 345 343 340 342 346 344 348 348 349 348 347 348 346 346 345 344 346 348 345 344 347 346 345 342 343 344
332 338 342 342 340 338 338 342 348 348 348 347 346 350 351 351 350 349 349 349 347 347 343 349 347 342 345 348 347 349 348 349 347 348 349 350 348 347 347 344 345 344 344 345 345 345 343 341 341
325 326 327 330 339 339 337 343 348 348 347 346 345 346 348 352 351 350 349 350 345 348 347 349 350 346 345 349 348 351 351 349 348 347 347 348 349 348 348 347 344 344 345 345 348 345 344 344 340
321 324 325 326 330 339 338 339 346 348 348 347 346 346 347 345 347 351 350 349 348 346 347 350 351 350 348 346 346 348 348 350 348 346 346 347 348 347 348 343 344 344 349 347 346 342 344 342 341
322 324 324 326 330 340 338 336 342 348 348 348 348 347 347 346 345 346 348 348 349 347 348 347 351 351 350 348 345 347 347 346 346 346 348 348 347 348 348 346 346 344 347 346 344 345 344 336 334
322 324 324 326 330 339 338 338 338 345 346 347 347 347 347 346 346 345 345 346 349 347 346 346 349 349 350 350 348 343 343 345 344 345 347 347 347 347 349 346 345 346 345 342 345 342 340 335 334
322 323 324 325 328 337 339 340 337 341 343 345 345 346 346 346 346 346 346 346 348 348 348 348 348 349 350 349 350 350 348 341 342 347 349 348 349 349 347 346 344 344 345 343 344 343 325 333 337
323 323 323 325 328 340 341 343 342 338 341 343 344 344 345 345 345 346 346 346 347 347 348 348 348 349 350 350 351 351 350 344 345 348 348 345 350 350 347 346 344 343 344 344 342 338 324 335 336
321 324 325 326 328 337 339 343 344 340 336 336 342 343 344 344 344 344 346 346 346 346 347 347 348 348 349 349 350 352 351 347 346 346 346 346 349 350 348 347 345 344 344 346 344 335 327 337 335
323 324 325 326 327 333 340 340 338 340 341 337 338 342 343 344 344 344 344 345 345 346 346 347 347 348 348 348 349 351 351 349 344 351 349 348 348 350 349 342 346 343 344 347 339 328 321 335 336
324 322 322 325 324 333 331 341 337 341 342 341 340 340 342 343 344 344 344 344 345 346 346 346 347 348 348 349 349 348 348 348 343 350 347 347 345 350 350 346 341 342 343 340 329 328 327 329 336
322 319 320 323 324 327 329 337 338 337 341 342 341 341 341 342 343 343 344 345 345 346 346 346 347 348 348 349 349 349 348 346 344 350 348 345 345 348 349 346 343 340 335 328 323 328 324 320 328
318 320 320 322 324 325 325 336 337 336 339 342 342 343 341 340 342 343 343 344 344 345 346 346 347 348 348 349 349 350 348 343 345 347 348 346 348 347 346 346 343 333 328 322 320 324 322 318 321
321 319 319 319 323 325 326 330 331 336 337 342 343 343 341 340 340 342 342 343 344 345 346 346 347 348 348 348 348 350 350 342 347 346 350 348 349 348 347 342 335 328 330 324 319 321 319 318 319
323 318 320 315 320 322 324 328 331 332 338 338 343 343 343 341 340 340 341 343 343 344 344 346 347 347 347 347 348 349 350 346 342 347 350 351 350 350 349 346 344 345 337 335 327 320 319 321 323
323 320 318 318 318 322 321 324 324 327 331 336 341 342 342 341 341 340 341 341 341 342 345 345 346 348 348 348 349 349 351 349 343 343 347 349 349 350 349 349 345 346 346 345 342 332 320 322 326
325 323 318 322 319 319 322 324 328 325 330 336 339 341 341 342 342 343 343 341 342 345 346 345 346 347 348 348 349 349 350 351 347 343 342 345 348 348 349 350 347 346 346 346 344 341 327 320 326
Wind_Speed
13 11 4 3 2 2 2 1 4 5 2 5 8 12 11 12 2 6 20 26 28 29 27 27 29 32 32 30 28 27 25 23 21 20 19 18 16 15 14 13 12 13 13 13 12 12 12 13 13
17 8 0 1 2 1 2 1 5 3 8 18 17 14 13 7 14 23 28 27 30 30 28 27 28 29 30 28 26 24 23 20 19 19 18 16 15 14 13 12 12 12 12 12 11 12 12 13 12
15 4 4 3 2 3 3 2 11 9 17 4 8 15 7 9 27 31 29 30 29 30 28 26 26 27 28 27 25 23 21 19 18 17 16 15 14 13 12 12 11 12 12 13 12 13 14 13 12
12 6 3 2 9 5 3 15 18 14 9 8 21 12 12 6 22 28 31 29 30 29 27 26 25 26 27 26 23 21 19 17 16 15 14 14 12 12 12 12 11 11 12 12 13 13 15 15 14
18 5 1 8 9 4 12 22 21 10 10 21 20 11 12 17 30 32 29 29 29 28 27 26 25 25 26 25 22 20 18 16 14 13 13 13 12 13 13 13 12 11 11 12 14 15 14 14 14
5 1 3 4 8 6 15 31 27 20 21 26 23 19 9 31 30 28 26 25 24 26 26 25 24 24 24 23 22 20 17 15 14 13 12 12 13 12 16 14 12 11 12 11 13 15 15 13 14
7 2 7 9 3 15 23 33 27 23 22 10 25 10 21 30 31 27 23 21 22 24 25 25 25 24 23 22 21 19 16 14 14 13 11 11 12 13 11 13 13 12 12 10 12 13 14 13 10
13 3 4 5 13 9 18 17 30 37 17 27 33 9 21 36 32 27 24 22 22 23 24 25 24 23 22 22 21 19 16 15 13 11 10 10 10 11 11 12 14 13 12 10 12 13 11 10 9
10 3 3 4 7 6 30 17 23 17 34 21 7 30 38 38 34 32 27 23 24 23 24 24 24 22 22 21 20 17 16 14 12 10 9 9 11 8 8 11 12 12 11 10 11 9 7 6 6
7 3 6 6 5 1 28 32 25 17 29 10 22 32 39 41 39 37 32 29 26 25 25 24 24 23 23 21 19 17 15 12 11 10 9 9 7 6 5 4 8 8 6 8 6 6 3 4 4
9 6 6 8 16 9 30 32 31 33 17 33 36 39 41 42 39 40 35 28 27 22 26 26 25 24 23 21 18 15 13 11 10 9 5 5 7 6 4 5 8 6 3 6 6 7 5 3 4
4 14 16 6 7 15 22 33 27 34 20 41 42 45 47 41 38 42 37 32 28 25 25 25 25 25 23 19 14 13 12 14 14 9 5 6 8 6 2 2 4 2 2 3 4 6 4 5 2
5 6 25 22 14 18 23 24 24 20 35 39 41 46 46 45 45 40 37 32 30 27 23 25 24 24 23 20 14 17 14 13 11 10 6 5 7 5 3 1 0 2 2 5 3 6 2 4 6
11 21 23 25 23 13 14 9 14 27 38 39 42 46 44 44 48 42 40 36 33 26 25 25 23 24 25 21 17 16 13 11 10 10 6 8 11 6 5 5 4 4 3 3 4 3 3 4 2
13 6 14 18 17 4 24 6 15 39 43 42 40 42 42 46 47 44 41 37 31 29 27 27 25 25 22 19 17 15 16 15 12 14 10 10 9 6 6 9 10 8 6 5 2 3 4 3 3
3 3 4 14 18 15 16 10 22 42 42 37 36 37 38 46 47 45 40 36 33 31 31 28 29 27 24 24 24 20 14 13 13 11 10 9 8 7 6 6 9 9 5 6 5 5 7 5 4
2 5 7 11 9 16 5 4 25 38 39 35 37 37 38 39 38 46 42 37 34 31 31 30 32 31 27 27 26 24 24 19 15 13 11 12 10 9 7 6 7 10 7 6 9 6 3 4 7
5 3 6 6 2 17 5 8 22 36 37 37 37 38 38 41 40 34 39 38 35 33 31 27 32 33 28 23 27 28 25 25 20 15 13 16 11 11 8 8 6 8 5 7 5 4 4 7 3
4 5 8 11 4 4 17 19 20 34 33 33 35 37 39 46 44 39 36 34 39 36 34 31 34 35 29 26 23 25 31 29 26 22 19 15 16 13 9 12 10 10 5 2 8 6 7 7 4
9 13 17 9 10 8 10 20 19 25 32 42 39 38 40 41 44 46 43 39 42 40 36 33 32 33 31 28 27 23 16 25 24 19 17 17 18 14 11 10 8 13 10 8 9 6 4 10 7
15 16 15 9 7 1 8 3 4 10 22 29 37 43 44 46 47 49 49 48 45 44 42 39 35 36 34 30 26 25 18 18 21 22 20 20 19 14 12 11 10 14 15 12 10 7 9 10 8
13 15 14 8 4 7 6 4 6 10 9 14 30 36 40 43 48 51 52 54 51 49 45 42 39 38 38 32 29 31 28 23 25 24 18 18 16 17 15 15 14 15 15 15 9 8 11 12 10
14 12 10 10 6 4 4 4 7 9 11 11 22 39 41 47 50 52 55 57 56 52 48 45 42 40 39 36 35 33 31 23 25 20 16 19 19 20 16 13 18 15 15 13 11 8 11 14 12
14 7 8 3 5 8 14 13 6 11 12 17 22 33 45 45 50 55 57 56 57 55 52 49 46 44 41 39 35 35 34 28 29 25 20 20 17 21 20 15 14 15 16 16 11 9 9 14 12
11 7 5 7 8 10 10 6 12 18 19 24 23 34 44 48 48 51 49 51 56 58 56 53 50 48 45 42 37 33 33 31 29 29 24 22 22 25 22 18 17 17 16 15 14 12 11 14 16
9 16 9 10 4 5 6 9 13 15 22 39 44 41 40 45 50 52 58 60 61 60 59 57 54 51 48 45 40 34 31 34 31 29 30 27 26 23 19 19 19 18 18 17 16 12 12 13 17
10 10 12 6 3 2 4 7 6 10 12 25 34 36 39 48 49 56 61 62 62 62 62 60 57 53 50 47 42 37 33 35 36 32 29 29 25 22 19 20 18 20 20 17 17 15 14 14 15
18 7 4 2 15 17 5 6 8 8 14 14 22 33 43 45 51 53 53 61 62 61 62 60 58 56 51 48 44 38 35 35 39 35 36 33 28 25 24 23 22 19 20 17 17 17 17 15 14
11 11 3 6 8 12 7 16 9 10 10 14 22 41 45 45 49 52 57 59 62 61 60 61 59 57 55 50 46 41 36 36 38 41 38 38 35 31 31 29 27 25 24 23 22 20 20 19 16
20 15 11 9 7 6 16 25 3 10 9 10 24 41 47 38 44 47 53 52 54 56 57 60 59 58 56 51 47 44 39 37 38 41 43 41 41 39 35 32 31 28 27 28 26 23 24 25 21
Wind_Direction
132 119 122 11 320 52 285 278 126 136 127 64 92 114 96 42 85 144 148 147 146 139 138 134 138 141 143 139 136 133 130 127 123 121 114 111 109 101 95 94 86 75 70 70 70 74 82 85 100
144 128 46 194 76 343 264 179 151 176 119 107 84 92 56 74 97 134 143 150 148 143 144 139 143 145 146 145 139 137 131 128 124 116 113 115 107 99 94 90 79 69 64 64 68 74 78 85 97
151 37 28 38 289 210 116 91 128 124 131 114 108 73 76 99 124 137 140 144 149 148 146 144 146 148 150 148 145 139 135 130 124 115 116 111 105 95 87 82 72 64 62 64 67 72 74 82 95
158 85 59 333 249 241 167 147 139 148 108 99 107 77 85 140 134 146 141 143 145 146 149 149 150 150 153 154 151 145 140 136 127 119 117 110 101 87 76 75 66 60 62 67 71 73 73 79 93
158 134 252 316 274 284 153 149 149 129 127 107 105 102 96 139 135 137 141 144 147 149 152 151 154 154 156 157 157 151 147 142 135 127 117 107 95 79 76 69 63 61 61 68 74 82 84 85 90
94 230 15 285 329 200 156 151 151 125 123 115 101 104 105 138 138 147 142 145 152 154 156 155 156 159 160 160 159 156 152 147 139 128 117 106 90 85 82 73 67 65 63 69 79 90 94 96 95
35 237 198 195 263 142 137 146 137 134 140 133 129 108 142 151 152 157 157 157 160 161 163 161 162 163 164 166 164 160 155 151 142 130 123 108 95 89 89 78 73 78 74 84 82 95 101 101 98
205 176 233 231 182 164 152 132 143 142 143 136 122 156 166 163 159 162 160 161 165 166 166 165 165 166 166 167 166 164 160 153 142 139 129 113 110 89 89 79 74 77 73 92 103 100 98 93 83
164 261 277 274 90 157 152 135 158 143 140 156 198 158 158 157 160 165 166 166 169 173 173 171 170 170 171 170 169 167 162 155 150 149 141 119 116 96 88 85 75 80 81 88 85 93 85 69 65
176 186 236 212 152 162 153 150 149 139 152 152 124 145 158 160 167 169 175 171 168 175 179 179 177 175 174 173 171 166 164 159 157 155 152 143 137 103 96 81 64 97 82 60 80 88 125 77 38
202 221 214 254 236 171 145 146 153 151 174 159 151 158 166 169 171 175 178 174 175 175 180 183 182 180 176 174 169 169 170 172 165 165 192 157 133 102 96 63 79 77 84 48 57 81 53 69 45
194 258 246 228 116 149 165 155 163 164 178 167 158 162 163 173 178 181 182 182 178 175 179 182 183 184 181 173 170 171 173 162 153 146 119 157 157 149 162 80 40 62 42 56 42 37 58 33 59
219 239 261 267 279 148 181 165 167 170 155 164 164 164 169 172 181 187 184 185 183 178 177 177 178 185 180 167 164 170 164 168 166 166 151 121 151 186 225 327 358 335 12 325 331 354 343 93 95
213 235 251 254 260 172 161 194 131 153 157 159 166 170 175 181 184 189 189 189 189 186 184 178 178 177 172 174 168 178 190 202 201 198 183 172 181 222 246 241 246 260 264 298 300 8 80 125 128
232 224 254 261 260 221 130 147 155 154 157 163 166 174 178 186 188 191 193 195 194 192 191 189 182 182 181 180 185 196 204 212 203 189 182 194 222 259 276 249 244 279 255 289 271 323 191 208 221
351 142 221 249 250 171 145 182 153 160 160 168 172 174 173 190 191 195 198 198 194 195 197 196 194 194 190 187 198 199 193 192 196 202 195 205 238 263 271 268 254 229 242 254 272 308 228 217 185
10 236 243 294 181 170 129 181 165 167 163 169 175 181 184 182 192 199 200 199 195 196 194 200 203 203 200 203 210 207 210 203 210 224 232 230 236 256 253 280 241 226 252 245 291 283 198 297 276
214 245 268 242 134 174 161 153 161 172 167 174 179 182 187 192 200 201 204 202 196 197 199 204 209 209 205 208 218 218 216 218 217 219 238 236 244 259 246 275 245 234 253 271 245 211 243 322 166
229 246 253 270 335 87 161 165 172 176 176 179 183 185 190 190 198 204 210 207 197 199 205 207 206 204 202 207 211 214 224 221 214 220 226 229 246 251 272 264 267 240 254 244 213 205 283 181 149
232 249 262 307 279 167 200 178 174 175 184 183 185 189 193 195 198 203 210 210 202 206 208 210 212 206 206 216 219 218 221 214 218 221 230 228 236 248 261 261 254 224 217 229 226 253 242 178 158
232 232 250 235 312 266 130 43 169 195 192 192 191 190 193 194 197 204 207 208 209 208 210 213 216 215 217 219 220 219 216 215 220 227 231 228 239 232 248 241 244 218 213 226 239 263 196 182 171
238 233 242 249 276 244 163 222 214 223 214 192 197 196 196 199 201 201 205 209 211 213 214 215 217 218 221 224 218 216 217 218 205 212 216 224 226 229 237 246 235 219 227 231 240 259 208 190 197
242 239 235 227 233 217 264 128 245 160 222 211 196 198 198 200 202 203 206 211 213 214 215 217 217 217 220 220 222 221 225 230 219 216 214 214 226 230 232 241 223 234 225 231 245 229 210 212 204
226 249 253 211 201 228 227 214 239 211 211 222 204 202 201 201 204 207 210 212 214 215 215 216 216 216 218 219 224 228 231 230 223 211 214 216 222 229 235 229 235 228 227 233 228 219 223 214 214
197 171 252 248 230 234 208 226 227 208 211 204 206 205 203 202 202 206 207 206 211 214 215 217 216 216 216 220 224 230 233 229 219 210 214 219 224 225 226 228 235 232 231 228 225 221 228 224 224
196 201 203 213 213 251 214 222 232 228 213 200 209 208 204 202 203 205 209 213 213 216 216 217 217 216 216 218 223 227 231 224 219 213 220 225 229 232 234 241 237 231 223 228 224 223 222 227 223
219 205 202 197 207 268 221 250 295 243 207 208 207 198 202 203 203 205 212 215 216 216 219 218 217 218 219 219 221 224 227 223 216 210 216 223 227 232 238 241 232 227 226 229 230 225 218 229 229
209 179 188 241 222 240 240 220 233 203 221 198 203 200 201 201 203 208 208 212 217 219 221 220 222 218 220 221 221 221 226 225 219 215 218 225 227 228 230 236 228 223 226 233 236 230 222 225 227
209 209 230 173 196 225 241 251 192 235 219 206 199 197 204 196 199 205 212 216 219 219 218 221 221 220 219 220 220 219 223 225 221 219 219 224 227 230 233 235 233 232 232 235 241 240 228 225 227
222 214 184 215 234 235 227 244 133 207 230 206 212 203 206 197 198 207 213 211 209 212 213 219 221 223 222 220 219 220 221 225 223 225 222 222 227 231 237 237 238 240 238 238 242 247 238 230 227